This is the latest recevied weather packets stored in our database for station/object LU5MN-13. If no packets are shown the sender has not sent any weather packets the latest 1 day(s).
| Time | Temp. | Humidity | Pressure | Rain* | Wind** | Luminosity | Snow |
|---|---|---|---|---|---|---|---|
| 1778114929 | 21.11° C | 37% | 1002.7 hPa | - | - | - | - |
| 1778114627 | 21.11° C | 37% | 1002.2 hPa | - | - | - | - |
| 1778114325 | 21.11° C | 37% | 1002.2 hPa | - | - | - | - |
| 1778114023 | 21.11° C | 37% | 1002 hPa | - | - | - | - |
| 1778113721 | 21.11° C | 37% | 1001.9 hPa | - | - | - | - |
| 1778113418 | 21.11° C | 36% | 1001.7 hPa | - | - | - | - |
| 1778112814 | 21.11° C | 34% | 1001.9 hPa | - | - | - | - |
| 1778112210 | 20.56° C | 32% | 1001.1 hPa | - | - | - | - |
| 1778111303 | 20.56° C | 28% | 1000.7 hPa | - | - | - | - |
| 1778111000 | 20.56° C | 27% | 1000.7 hPa | - | - | - | - |
| 1778110396 | 20.56° C | 31% | 1001.3 hPa | - | - | - | - |
| 1778108578 | 20.56° C | 32% | 1002.1 hPa | - | - | - | - |
| 1778107066 | 20.56° C | 27% | 1002 hPa | - | - | - | - |
| 1778105857 | 21.11° C | 29% | 1001.9 hPa | - | - | - | - |
| 1778101618 | 20.56° C | 29% | 1001.8 hPa | - | - | - | - |
| 1778100711 | 20.56° C | 30% | 1001.7 hPa | - | - | - | - |
| 1778099501 | 20.56° C | 28% | 1001.6 hPa | - | - | - | - |
| 1778099198 | 21.11° C | 28% | 1001.6 hPa | - | - | - | - |
| 1778098896 | 20.56° C | 29% | 1001.4 hPa | - | - | - | - |
| 1778096477 | 20.56° C | 46% | 1000.9 hPa | - | - | - | - |
| 1778096175 | 20.56° C | 46% | 1000.8 hPa | - | - | - | - |
| 1778095570 | 20.56° C | 47% | 1000.7 hPa | - | - | - | - |
| 1778093756 | 20.56° C | 47% | 1000.8 hPa | - | - | - | - |
| 1778093151 | 20.56° C | 48% | 1000.5 hPa | - | - | - | - |
| 1778091942 | 20.56° C | 48% | 1000.4 hPa | - | - | - | - |
* Rain since midnight (hover to see other rain measurements)
** Current wind speed in m/s (hover to see current wind gust speed)